377  
ASUS44 KEWX 150002  
RWREWX  
SOUTH TEXAS REGIONAL WEATHER ROUNDUP  
NATIONAL WEATHER SERVICE AUSTIN/SAN ANTONIO TX  
700 PM CDT TUE AUG 14 2018  
 
NOTE: "FAIR" INDICATED FEW OR NO CLOUDS BELOW 12,000 FEET WITH NO  
SIGNIFICANT WEATHER AND/OR S TO VISIBILITY
.  
 
* - THESE STATIONS ARE NOT NWS OR FAA STATIONS...AND ARE NOT SUBJECT  
TO NWS AND FAA QUALITY CONTROL.
 
 
TXZ171-172-183>190-150100-  
TEXAS HILL COUNTRY AND EDWARDS PLATEAU  
 
CITY SKY/WX TMP DP RH WIND PRES REMARKS
 
JUNCTION MOSUNNY 89 64 43 S12 29.93F HX 90  
6HR MIN TEMP: 84; 6HR MAX TEMP: 90;  
 
*LLANO MOSUNNY 93 64 38 S12 29.94F HX 95  
BURNET MOSUNNY 93 65 39 S5 29.94F HX 95  
6HR MIN TEMP: 88; 6HR MAX TEMP: 95;  
 
*HORSESHOE BAY MOSUNNY 93 61 34 S8 29.91F HX 93  
6HR MIN TEMP: 90; 6HR MAX TEMP: 94;  
 
*KERRVILLE MOSUNNY 92 66 43 S9 29.94F HX 94  
6HR MIN TEMP: 83; 6HR MAX TEMP: 93; 6HR PCP: 0.01;  
 
*FREDERICKSBRG MOSUNNY 89 59 36 S10 29.94F  
6HR MIN TEMP: 85; 6HR MAX TEMP: 91;  
 
*ROCKSPRINGS MOSUNNY 88 63 42 SE16 30.01S  
*BOERNE STAGE MOSUNNY 90 64 43 S10G16 29.94S HX 91  
*CASTROVILLE MOSUNNY 95 61 32 SE14 29.90F HX 95  
HONDO SUNNY 95 65 37 SE15 29.89F HX 97  
6HR MIN TEMP: 91; 6HR MAX TEMP: 98;  
 
*UVALDE MOSUNNY 94 65 37 SE12 29.88F HX 96  
6HR MIN TEMP: 87; 6HR MAX TEMP: 95;  
 
DEL RIO CLOUDY 91 68 46 SE6 29.83F HX 95  
6HR MIN TEMP: 84; 6HR MAX TEMP: 94;  
 
LAUGHLIN AFB NOT AVBL  
CARRIZO SPRGS MOSUNNY 97 63 32 SE13G18 29.83S HX 98  
*EAGLE PASS CLEAR 99 57 25 SE9G18 29.84F HX 97  
*FAITH RANCH SUNNY 99 59 26 SE9G18 29.85S HX 98  

 
 
TXZ173-191>194-202-209-217>225-228-150100-  
CENTRAL AND SOUTH CENTRAL TEXAS  
 
CITY SKY/WX TMP DP RH WIND PRES REMARKS
 
GEORGETOWN MOSUNNY 95 65 37 S13G18 29.91F HX 97  
6HR MIN TEMP: 90; 6HR MAX TEMP: 96;  
 
AUSTIN/BERGSTM MOSUNNY 95 67 39 S15 29.88F HX 99  
6HR MIN TEMP: 92; 6HR MAX TEMP: 98;  
 
AUSTIN/MABRY MOSUNNY 94 65 38 S8 29.90F HX 96  
6HR MIN TEMP: 93; 6HR MAX TEMP: 100;  
 
*AUSTIN/EXEC MOSUNNY 91 70 49 SE15 29.90F HX 97  
*LAGO VISTA MOSUNNY 90 67 45 SE8 29.93S HX 93  
6HR MIN TEMP: 89; 6HR MAX TEMP: 96;  
 
SAN MARCOS SUNNY 94 68 42 SE16 29.89F HX 98  
6HR MIN TEMP: 92; 6HR MAX TEMP: 98;  
 
NEW BRAUNFELS MOSUNNY 94 67 41 S20 29.88S HX 97  
6HR MIN TEMP: 92; 6HR MAX TEMP: 99;  
 
RANDOLPH AFB SUNNY 93 67 42 S17 29.89F HX 97  
6HR MIN TEMP: 90; 6HR MAX TEMP: 97;  
 
PT SAN ANTONIO NOT AVBL  
SAN ANTONIO MOSUNNY 94 65 38 SE17 29.90S HX 96  
6HR MIN TEMP: 90; 6HR MAX TEMP: 97;  
 
STINSON FIELD SUNNY 94 64 37 SE12 29.87S HX 95  
6HR MIN TEMP: 93; 6HR MAX TEMP: 99;  
 
*LA GRANGE SUNNY 93 71 48 S12 29.89F HX 100  
6HR MIN TEMP: 92; 6HR MAX TEMP: 99;  
 
*GIDDINGS MOSUNNY 92 67 43 S7 29.92S HX 95  
6HR MIN TEMP: 89; 6HR MAX TEMP: 97;  
 
*GONZALES SUNNY 92 70 48 S15G21 29.89S HX 98  
6HR MIN TEMP: 92; 6HR MAX TEMP: 98;  
 

 
 
TXZ163>164-176>182-195>201-210>213-226-227-235-150100-  
SOUTHEAST TEXAS  
 
CITY SKY/WX TMP DP RH WIND PRES REMARKS
 
COLLEGE STN SUNNY 93 71 48 SE13 29.90F HX 100  
6HR MIN TEMP: 90; 6HR MAX TEMP: 97;  
 
*BRYAN SUNNY 92 69 46 SE14G20 29.92F HX 97  
6HR MIN TEMP: 91; 6HR MAX TEMP: 96;  
 
*CALDWELL MOSUNNY 92 70 48 S10 29.91S HX 97  
6HR MIN TEMP: 91; 6HR MAX TEMP: 98;  
 
*CROCKETT N/A 91 70 49 SE6 29.96F HX 97  
*BRENHAM MOSUNNY 91 71 50 SE9 29.92F HX 97  
6HR MIN TEMP: 91; 6HR MAX TEMP: 97;  
 
HUNTSVILLE SUNNY 91 71 51 SE8 29.93F HX 97  
6HR MIN TEMP: 91; 6HR MAX TEMP: 97;  
 
CONROE SUNNY 89 76 65 SE10 29.95S HX 100  
6HR MIN TEMP: 89; 6HR MAX TEMP: 95;  
 
HOUSTON BUSH FAIR 89 75 63 SE14 29.93F HX 99  
6HR MIN TEMP: 89; 6HR MAX TEMP: 95;  
 
HOUSTON HOBBY FAIR 88 75 65 S8 29.94F HX 97  
6HR MIN TEMP: 88; 6HR MAX TEMP: 93;  
 
*HOUSTON SW AP FAIR 88 73 62 MISG 29.95F HX 96  
6HR MIN TEMP: 88; 6HR MAX TEMP: 94;  
 
PEARLAND FAIR 88 75 65 S10 29.96F HX 97  
6HR MIN TEMP: 88; 6HR MAX TEMP: 93;  
 
HOUSTON HOOKS FAIR 91 71 51 VRB6 29.93F HX 97  
6HR MIN TEMP: 90; 6HR MAX TEMP: 95;  
 
ELLINGTON FLD NOT AVBL  
SUGAR LAND FAIR 92 72 51 S15 29.93F HX 99  
6HR MIN TEMP: 92; 6HR MAX TEMP: 98;  
 
*HOUSTON EXEC FAIR 91 72 52 S14 29.94F HX 98  
*CLEVELAND MUN FAIR 88 68 51 S9 29.95F HX 92  
6HR MIN TEMP: 88; 6HR MAX TEMP: 94; 6HR PCP: 0.05;  
 
*WHARTON SUNNY 89 68 50 SE10 29.94F HX 92  
6HR MIN TEMP: 89; 6HR MAX TEMP: 94;  
 
*COLUMBUS FAIR 90 67 46 S13 29.93S HX 93  
6HR MIN TEMP: 90; 6HR MAX TEMP: 95;  
 
*EAGLE LAKE CLEAR 91 73 54 S14G20 29.92F HX 99  
6HR MIN TEMP: 91; 6HR MAX TEMP: 96;  
 

 
 
TXZ214>216-236>238-150100-  
THE UPPER TEXAS COAST  
 
CITY SKY/WX TMP DP RH WIND PRES REMARKS
 
*ORANGE FAIR 87 76 71 S7 29.98F HX 98  
6HR MIN TEMP: 87; 6HR MAX TEMP: 91;  
 
PORT ARTHUR FAIR 87 74 64 S8 29.96F HX 95  
6HR MIN TEMP: 87; 6HR MAX TEMP: 93;  
 
GALVESTON FAIR 87 76 69 S12 29.97F HX 97  
6HR MIN TEMP: 87; 6HR MAX TEMP: 91;  
 
ANGLETON FAIR 88 72 58 S10 29.95F HX 94  
6HR MIN TEMP: 88; 6HR MAX TEMP: 93;  
 
*BAY CITY PTSUNNY 89 74 62 S12 29.95S HX 98  
PALACIOS MOSUNNY 88 77 69 SE13 29.94S HX 100  
6HR MIN TEMP: 81; 6HR MAX TEMP: 93; 6HR PCP: 0.08;  
 

 
 
TXZ229>234-239>247-150100-  
TEXAS COASTAL BEND AND RIO GRANDE PLAINS  
 
CITY SKY/WX TMP DP RH WIND PRES REMARKS
 
VICTORIA SUNNY 90 71 53 S17 29.92S HX 96  
6HR MIN TEMP: 90; 6HR MAX TEMP: 97; 6HR PCP: TRACE;  
 
*BEEVILLE SUNNY 90 68 47 SE16G22 29.91S HX 93  
6HR MIN TEMP: 90; 6HR MAX TEMP: 96;  
 
ROCKPORT SUNNY 87 74 64 SE15 29.91F HX 95  
6HR MIN TEMP: 87; 6HR MAX TEMP: 92;  
 
*PORT ARANSAS SUNNY 86 76 72 SE13 29.93S HX 96  
6HR MIN TEMP: 86; 6HR MAX TEMP: 90;  
 
*PORT LAVACA MOSUNNY 90 74 59 SE14 29.93F HX 99  
6HR MIN TEMP: 90; 6HR MAX TEMP: 95;  
 
*INGLESIDE SUNNY 88 74 65 S13 29.91F HX 96  
CORPUS CHRISTI PTSUNNY 87 74 64 SE17G25 29.90S HX 95  
6HR MIN TEMP: 87; 6HR MAX TEMP: 94;  
 
CORPUS NAS PTSUNNY 87 78 74 SE16 29.91S HX 100  
6HR MIN TEMP: 87; 6HR MAX TEMP: 92;  
 
*ROBSTOWN SUNNY 87 73 63 SE14 29.90F HX 94  
6HR MIN TEMP: 87; 6HR MAX TEMP: 93;  
 
ALICE SUNNY 89 69 51 SE17G26 29.88S HX 93  
6HR MIN TEMP: 89; 6HR MAX TEMP: 97;  
 
KINGSVILLE NAS PTSUNNY 88 72 58 SE17 29.88F HX 94  
6HR MIN TEMP: 88; 6HR MAX TEMP: 95;  
 
COTULLA MOSUNNY 95 66 38 SE10 29.85S HX 98  
6HR MIN TEMP: 90; 6HR MAX TEMP: 97;  
 
LAREDO MOSUNNY 100 63 29 SE16 29.83F HX 102  
6HR MIN TEMP: 95; 6HR MAX TEMP: 102;  
 

 
 
TXZ248>255-150100-  
DEEP SOUTH TEXAS  
 
CITY SKY/WX TMP DP RH WIND PRES REMARKS
 
BROWNSVILLE FAIR 89 74 60 SE22 29.90S HX 98  
6HR MIN TEMP: 89; 6HR MAX TEMP: 97;  
 
PORT ISABEL FAIR 87 73 62 SE17 29.89S HX 94  
6HR MIN TEMP: 87; 6HR MAX TEMP: 93;  
 
*SOUTH PA  
 
CLICK HERE TO GO TO PREVIOUS BULLETINS.

The Nexlab TX Page Main Text Page